Weather Roundup
Issued by NWS

Home | Current Version | Previous Version | Graphics & Text | Print | Product List | Glossary Off
Versions: 1 2 3 4 5 6 7 8 9 10 11 12 13 14 15 16 17 18 19 20 21 22 23 24 25 26 27 28 29 30 31 32 33 34 35 36 37 38 39 40 41 42 43 44 45 46 47 48 49 50

000
NZUS93 KARX 250559
HRRWXR

CURRENT HOURLY OBSERVATIONS ACROSS
MUCH OF THE UPPER MISSISSIPPI VALLEY
NATIONAL WEATHER SERVICE LA CROSSE WI
100 AM CDT THU MAY 25 2017


...SOUTHEAST MINNESOTA...


CITY           SKY/WX    TMP DP  RH WIND       PRES   REMARKS
ROCHESTER      PTCLDY    52  49  89 CALM      29.71S
ROCHESTER/MAYO NOT AVBL
WINONA         NOT AVBL
AUSTIN         NOT AVBL
ALBERT LEA     NOT AVBL
DODGE CENTER   NOT AVBL
PRESTON        NOT AVBL
OWATONNA       NOT AVBL
FARIBAULT      NOT AVBL
$$

...ELSEWHERE IN MINNESOTA...


CITY           SKY/WX    TMP DP  RH WIND       PRES   REMARKS
MINNEAPOLIS    PTCLDY    54  45  71 E3        29.70F
INTNL FALLS    CLEAR     44  37  76 E6        29.73F
DULUTH         CLEAR     43  41  93 E5        29.75S
RED WING       NOT AVBL
REDWOOD FALLS  CLEAR     49  44  83 SE6       29.68F
MANKATO          N/A     51  47  86 CALM      29.70F
WORTHINGTON    CLEAR     46  43  89 SE7       29.68F
FAIRMONT       CLEAR     50  47  89 CALM      29.70S
$$

...SOUTHWEST WISCONSIN...


CITY           SKY/WX    TMP DP  RH WIND       PRES   REMARKS
LA CROSSE      CLEAR     53  50  89 N3        29.70S
PRAIRIE DU CHI CLEAR     49  47  93 CALM      29.69S
BOSCOBEL       CLOUDY    52  50  93 CALM      29.69F
LONE ROCK      NOT AVBL
PLATTEVILLE    MOCLDY    52  52 100 NE7       29.68S
FORT MC COY    MOCLDY    46  46 100 CALM      29.71F
MAUSTON-NEW LI CLOUDY    53  50  89 CALM      29.69F
VIROQUA        CLOUDY    52  50  92 W5        29.70S
WIS DELLS      CLOUDY    52  47  84 N3        29.68F
$$

...ELSEWHERE IN WISCONSIN...


CITY           SKY/WX    TMP DP  RH WIND       PRES   REMARKS
MILWAUKEE      CLOUDY    55  51  86 N13       29.59S
MADISON        CLOUDY    53  50  89 N7        29.65S
GREEN BAY      MOCLDY    51  50  96 N8        29.67S
EAU CLAIRE     NOT AVBL
BLACK RVR FLS  FOG       46  46 100 CALM      29.71S VSB<1/4
MEDFORD        CLOUDY    50  47  90 NE5       29.72S
WAUSAU         CLEAR     50  48  93 N3        29.70S
WIS RAPIDS     CLOUDY    54  49  83 NE7       29.71F
MARSHFIELD     CLEAR     47  45  93 N3        29.70S
RICE LAKE      CLOUDY    52  47  83 NE3       29.74S
$$

...NORTHEAST IOWA...


CITY           SKY/WX    TMP DP  RH WIND       PRES   REMARKS
WATERLOO       FOG       44  42  93 CALM      29.69S VSB 3/4
DUBUQUE        MOCLDY    52  50  93 N7        29.67S
DECORAH        PTCLDY    50  48  93 CALM      29.69S
MASON CITY     CLEAR     47  45  93 SE5       29.71S
CHARLES CITY   CLEAR     50  50 100 CALM      29.71S
OELWEIN        CLEAR     48  48 100 NE6       29.69F
$$

...ELSEWHERE IN IOWA...


CITY           SKY/WX    TMP DP  RH WIND       PRES   REMARKS
DES MOINES     CLEAR     53  48  83 CALM      29.69F
IOWA CITY      CLEAR     54  49  83 N8        29.68S
FORT DODGE     CLEAR     46  45  93 CALM      29.70S
MARSHALLTOWN   CLEAR     47  47 100 NW5       29.68F
CEDAR RAPIDS   CLEAR     49  49 100 N6        29.67S
$$

...NORTHERN ILLINOIS...


CITY           SKY/WX    TMP DP  RH WIND       PRES   REMARKS
CHICAGO-OHARE  CLOUDY    55  50  83 N12       29.55F
CHICAGO-MIDWAY CLOUDY    54  50  86 N14       29.54F
MOLINE         CLOUDY    56  50  80 N10       29.63F
ROCKFORD       CLOUDY    55  51  86 N12       29.63S
PEORIA         CLEAR     54  52  93 NW7       29.60S
$$

NOTE: "FAIR" INDICATES FEW OR NO CLOUDS BELOW 12,000 FEET WITH NO
SIGNIFICANT WEATHER AND/OR OBSTRUCTIONS TO VISIBILITY. WIND
SPEEDS ARE IN MILES-PER-HOUR.




USA.gov is the U.S. government's official web portal to all federal, state and local government web resources and services.